User: anonymous   Login
Location: Newark
(25.4800°N, 85.7200°E)
Time: 21:57:27
(UTC+00:00)
Language:

Transit 2A Rocket - Orbit

View from above orbital plane
View from above orbital plane
View from above satellite
View from above satellite

Ground track
Ground track

The orbit data is extracted from the following two-line orbital elements,

1    47U 60007C   19234.46480712 -.00000071  00000-0  91661-5 0  9992
2    47  66.6637 237.0862 0226084 164.6809 196.1294 14.42046048 91871
Epoch (UTC): 22 August 2019 11:09:19
Eccentricity: 0.0226084
inclination: 66.6637°
perigee height: 590 km
apogee height: 913 km
right ascension of ascending node: 237.0862°
argument of perigee: 164.6809°
revolutions per day: 14.42046048
mean anomaly at epoch: 196.1294°
orbit number at epoch: 9187

The dashed part of the orbit path shows where the satellite is in the earth's shadow,  

DLR